User: anonymous   Login
Location: *
(33.8649°S, 62.1526°E)
Time: 03:07:22
(UTC+00:00)
Language:

S3M - Orbit

View from above orbital plane
View from above orbital plane
View from above satellite
View from above satellite

Ground track
Ground track

The orbit data is extracted from the following two-line orbital elements,

1 12508U 81053B   21101.93435601  .00000050  00000-0  35377-4 0  9993
2 12508  82.9620 189.9481 0035999 265.4579  94.2466 13.76369845  7097
Epoch (UTC): 11 April 2021 22:25:28
Eccentricity: 0.0035999
inclination: 82.9620°
perigee height: 950 km
apogee height: 1003 km
right ascension of ascending node: 189.9481°
argument of perigee: 265.4579°
revolutions per day: 13.76369845
mean anomaly at epoch: 94.2466°
orbit number at epoch: 709

The dashed part of the orbit path shows where the satellite is in the earth's shadow,  

DLR